Date,TemperatureHighF,TemperatureAvgF,TemperatureLowF,DewpointHighF,DewpointAvgF,DewpointLowF,HumidityHigh,HumidityAvg,HumidityLow,PressureMaxIn,PressureMinIn,WindSpeedMaxMPH,WindSpeedAvgMPH,GustSpeedMaxMPH,PrecipitationSumIn
2013-2-1,34.0,26.9,20.0,25.0,6.8,-1.0,88,43,31,0.00,40.00,25,12,0,0.00
2013-2-2,30.0,23.7,18.0,26.0,9.7,1.0,90,56,38,0.00,40.00,14,8,0,0.00
2013-2-3,33.0,30.2,26.0,27.0,24.4,13.0,92,79,49,0.00,40.00,20,5,0,0.00
2013-2-4,37.0,30.6,25.0,19.0,12.0,7.0,50,45,37,0.00,40.00,18,9,0,0.00
2013-2-5,40.0,36.8,33.0,27.0,22.9,19.0,67,57,47,0.00,40.00,8,4,0,0.00
2013-2-6,43.0,38.8,34.0,29.0,24.0,19.0,70,55,42,0.00,40.00,19,7,0,0.00
2013-2-7,39.0,35.3,32.0,28.0,21.3,17.0,71,56,50,0.00,40.00,12,6,0,0.00
2013-2-8,41.0,37.0,32.0,37.0,31.1,19.0,94,80,52,0.00,40.00,23,10,0,0.00
2013-2-9,39.0,33.9,29.0,19.0,14.3,11.0,55,44,32,0.00,40.00,24,14,0,0.00
2013-2-10,43.0,35.7,29.0,25.0,12.5,-99.9,58,40,24,0.00,40.00,11,6,0,0.00
2013-2-11,54.0,44.5,37.0,50.0,41.7,26.0,100,90,49,0.00,40.00,12,8,0,0.00
2013-2-12,55.0,49.6,41.0,29.0,24.2,21.0,55,37,27,0.00,40.00,16,9,0,0.00
2013-2-13,45.0,38.3,34.0,35.0,28.3,24.0,96,68,50,0.00,40.00,10,7,0,0.00
2013-2-14,48.0,40.3,34.0,33.0,26.8,21.0,94,61,35,0.00,40.00,12,7,0,0.00
2013-2-15,58.0,44.7,36.0,35.0,30.7,23.0,91,62,27,0.00,40.00,17,8,0,0.00
2013-2-16,38.0,35.7,32.0,35.0,27.2,12.0,94,72,42,0.00,40.00,15,7,0,0.00
2013-2-17,31.0,27.6,24.0,14.0,7.2,1.0,54,42,30,0.00,40.00,23,15,0,0.00
2013-2-18,40.0,30.5,22.0,16.0,5.4,2.0,48,35,22,0.00,40.00,14,8,0,0.00
2013-2-19,45.0,40.5,38.0,40.0,28.4,16.0,88,63,38,0.00,40.00,16,11,0,0.00
2013-2-20,39.0,32.4,25.0,19.0,11.1,6.0,47,41,32,0.00,40.00,22,13,0,0.00
2013-2-21,37.0,29.4,24.0,15.0,10.3,6.0,52,44,34,0.00,40.00,17,10,0,0.00
2013-2-22,33.0,31.5,30.0,31.0,20.5,13.0,91,64,46,0.00,40.00,11,6,0,0.00
2013-2-23,45.0,38.4,32.0,44.0,37.5,31.0,99,96,92,0.00,40.00,9,5,0,0.00
2013-2-24,49.0,42.0,34.0,42.0,29.0,16.0,96,64,31,0.00,40.00,22,11,0,0.00
2013-2-25,47.0,38.2,31.0,22.0,18.8,16.0,59,46,33,0.00,40.00,12,6,0,0.00
2013-2-26,44.0,38.6,33.0,44.0,31.8,23.0,99,77,50,0.00,40.00,22,10,0,0.00
2013-2-27,54.0,46.7,39.0,44.0,36.2,29.0,100,71,39,0.00,40.00,12,7,0,0.00
2013-2-28,49.0,43.2,40.0,35.0,26.4,19.0,75,52,34,0.00,40.00,14,9,0,0.00